291  
ASUS44 KLUB 210301  
RWRLUB  
WEST TEXAS WEATHER ROUNDUP  
NATIONAL WEATHER SERVICE LUBBOCK TX  
1000 PM CDT MON AUG 20 2018  
 
NOTE: "FAIR" INDICATES FEW OR NO CLOUDS BELOW 12,000 FEET WITH NO  
SIGNIFICANT WEATHER AND/OR S TO VISIBILITY
.  
 
TXZ004-006>008-010-012-014-016-OKZ002-210400-  
TEXAS PANHANDLE/OKLAHOMA PANHANDLE  
 
CITY SKY/WX TMP DP RH WIND PRES REMARKS
 
AMARILLO PTCLDY 68 50 52 E8 30.20R HAZE  
BORGER CLOUDY 74 48 39 E9 30.17R HAZE  
CANADIAN CLEAR 67 54 61 CALM 30.14R  
DALHART CLEAR 67 52 58 SE9 30.20R HAZE  
DUMAS CLEAR 64 49 58 E8 30.20R HAZE  
GUYMON CLEAR 67 48 50 NE8 30.17R  
HEREFORD CLEAR 72 58 61 CALM 30.21R  
PAMPA CLEAR 64 55 70 E7 30.19R HAZE  
PERRYTON CLEAR 64 54 69 NE6 30.16R  

 
 
TXZ026-029-035-045-048-210400-  
SOUTHERN PANHANDLE/SOUTH PLAINS/ROLLING PLAINS  
 
CITY SKY/WX TMP DP RH WIND PRES REMARKS
 
CHILDRESS CLEAR 77 56 48 E7 30.11R HAZE  
LUBBOCK CLEAR 77 63 61 E5 30.17R  
PLAINVIEW CLEAR 70 59 66 SE6 30.18R  
SNYDER CLEAR 82 59 45 E5 30.12R  

 
 
TXZ052-054-060>062-072-078-127-140-154-169-210400-  
PERMIAN BASIN/CONCHO VALLEY/BIG COUNTRY/EDWARDS PLATEAU  
 
CITY SKY/WX TMP DP RH WIND PRES REMARKS
 
ABILENE CLEAR 81 63 54 E7 30.08R  
BRADY CLEAR 79 68 69 CALM 30.07R  
BROWNWOOD PTCLDY 82 64 54 NE3 30.06R  
JUNCTION CLOUDY 77 75 93 CALM 30.07R  
MIDLAND CLEAR 85 62 46 E6 30.11R  
ODESSA CLEAR 82 64 54 S3 30.13R  
SAN ANGELO CLEAR 80 64 58 SE3 30.06R  
SONORA CLOUDY 75 66 73 CALM 30.12R HAZE  
SWEETWATER CLEAR 80 60 50 SE5 30.14R  
WINK CLEAR 82 63 52 E5 30.08R  

 
 
TXZ055-058-074-075-080-082-210400-  
FAR WEST/SOUTHWEST MOUNTAINS/TRANS PECOS  
 
CITY SKY/WX TMP DP RH WIND PRES REMARKS
 
ALPINE CLEAR 72 63 73 W3 30.26R  
DRYDEN N/A 83 65 54 N8 30.05R  
EL PASO CLOUDY 90 52 27 SE7 30.08R  
FORT STOCKTON CLOUDY 76 67 73 SE6 30.11R  
MARFA N/A 70 60 70 MISG N/A  
PECOS CLEAR 83 59 44 SE5 30.07R  
PRESIDIO FAIR 84 64 49 NE8 30.07R  

 
 
TXZ014-016-019-021>030-083-210400  
TEXAS TECH WEST TEXAS MESONET/TEXAS PANHANDLE/NORTHERN SOUTH PLAINS  
 
CITY SKY/WX TMP DP RH WIND PRES REMARKS
 
ABERNATHY 5ENE N/A 72 62 68 SE7 30.20R  
AMARILLO 9NNE N/A 69 51 51 E9 30.19R  
AMARILLO 7SSE N/A 68 51 55 E8 30.22R  
AMHERST 1NE N/A 72 60 66 E3 30.21R  
BOOTLEG 11WNW N/A 66 59 78 SE8 30.26R  
CANADIAN 6E N/A 63 54 72 N9 30.13R  
CAPROCK CYN SP N/A 70 62 74 SW1 30.16R  
CHILDRESS 2NNE N/A 76 53 43 NE9 30.12R  
CLARENDON 2WSW N/A 71 55 55 E6 30.17R  
CLAUDE 12SW N/A 68 53 59 E8 30.20R  
DIMMITT 2NE N/A 72 60 67 SW2 30.22R  
FLOYDADA 2NNE N/A 69 60 72 E6 30.18R  
FRIONA 2NE N/A 68 60 76 SE6 30.24R  
GOODLETT 3W N/A 75 57 53 NE6 30.09R  
HART 3N N/A 71 60 68 SW2 30.21R  
HEREFORD 2NW N/A 72 56 57 S3 30.23R  
MCLEAN 1E N/A 70 51 50 NE7 30.16R  
MEMPHIS 1NE N/A 71 57 59 N3 30.13R  
MULESHOE 2SSW N/A 68 62 79 E3 30.21R  
OLTON 6S N/A 72 60 67 SE7 30.21R  
PALO DURO SP N/A 73 51 46 E2 30.21R  
PAMPA 2E N/A 64 54 69 NE6 30.19R  
PLAINVIEW 1S N/A 73 60 64 E5 30.19R  
SILVERTON 7ESE N/A 70 57 63 E5 30.17R  
TULIA 2ENE N/A 70 57 64 SE8 30.21R  
TURKEY 2WSW N/A 78 58 50 E3 30.14R  
UMBARGER 3NNE N/A 71 57 61 SE6 30.22R  

 
 
TXZ033>036-039>041-045>048-210400  
TEXAS TECH WEST TEXAS MESONET/SOUTH PLAINS  
 
CITY SKY/WX TMP DP RH WIND PRES REMARKS
 
AIKEN 3WSW N/A 68 63 83 E6 30.20R  
ANDREWS 2NE N/A 76 65 69 N6 30.17R  
ANTON 6SSW N/A 76 62 62 SE5 30.19R  
BROWNFIELD 2S N/A 76 65 69 S2 30.18R  
DENVR CTY 7WNW N/A 71 64 79 E6 30.20R  
GAIL 2ESE N/A 80 60 49 E5 30.12R  
LAMESA 2SE N/A 78 62 57 NE2 30.15R  
LUBBOCK 3WNW N/A 76 59 54 E5 30.19R  
MORTON 1ENE N/A 74 61 64 SE5 30.21R  
ODONNELL 1N N/A 77 64 65 N3 30.16R  
PLAINS 3N N/A 73 62 70 SE6 30.21R  
RALLS 1SE N/A 73 63 70 E5 30.19R  
REESE CENTER N/A 74 60 60 E5 30.19R  
SEAGRAVES 1SW N/A 74 67 80 CALM 30.18R  
SEMINOLE 2NNE N/A 74 64 71 NE5 30.17R  
SLATON 2NE N/A 77 58 51 E5 30.18R  
SNYDER 3E N/A 78 60 53 E8 30.12R  
SUNDOWN 8SW N/A 72 62 69 SE8 30.21R  
TAHOKA 3NNE N/A 74 64 71 NE5 30.17R  
WOLFFORTH 6SSW N/A 74 64 69 E3 30.19R  

 
 
TXZ031-032-036>038-042>044-210400-  
TEXAS TECH WEST TEXAS MESONET/ROLLING PLAINS  
 
CITY SKY/WX TMP DP RH WIND PRES REMARKS
 
ASPERMONT 3NE N/A 79 58 48 NE6 30.08R  
FLUVANNA 3WNW N/A 78 55 44 E7 30.14R  
GRAHAM 5SSW N/A 82 57 43 E2 30.15R  
GUTHRIE 10WSW N/A 80 53 39 NE8 30.10R  
HASKELL 1NW N/A 79 58 48 E6 30.08R  
JAYTON 1SSE N/A 80 55 40 NE6 30.09R  
KNOX CITY 3NW N/A 82 56 41 NE7 30.08R  
LK A HENRY 1NW N/A 82 59 46 E5 30.12R  
NORTHFIELD 1S N/A 78 55 44 E6 30.12R  
ODELL 4ENE N/A 72 63 73 NE5 30.09R  
PADUCAH 10SW N/A 77 57 50 N3 30.11R  
POST 1NE N/A 79 56 43 NE3 30.13R  
RRING SPRGS 3N N/A 75 58 54 NE5 30.15R  
SEYMOUR 3NW N/A 76 59 54 NE3 30.08R  
SPUR 1W N/A 78 55 45 NE5 30.12R  
WEINERT 2NNE N/A 82 56 41 NE9 30.08R  
WHITE RVR 6NE N/A 76 56 49 N8 30.15R  

 
 
TXZ052-054-060>062-072-078-127-140-154-169-210400-  
TEXAS TECH WEST TEXAS MESONET/PERMIAN BASIN/  
CONCHO VALLEY/BIG COUNTRY/EDWARDS PLATEAU  
 
CITY SKY/WX TMP DP RH WIND PRES REMARKS
 
COYANOSA 2N N/A 81 62 51 SE8 30.09R  
JUNCTION 1SSW N/A 77 72 85 CALM 30.08R  
MERTZON 3NNE N/A 78 65 62 S3 30.10R  
SAN ANGELO 7NW N/A 83 62 50 SE6 30.08R  
STRLNG CT 4WSW N/A 79 65 62 E3 30.11R  
ST LAWRNCE 5SW N/A 82 61 49 E6 30.12R  
SWEETWATR 11SW N/A 76 64 65 E8 30.13R  
WALL 1E N/A 80 68 67 W3 30.09R  

 
 
TXZ055-058-074-075-080-082-210400-  
TEXAS TECH WEST TEXAS MESONET/FAR WEST/SOUTHWEST MOUNTAINS/TRANS PECOS  
 
CITY SKY/WX TMP DP RH WIND PRES REMARKS
 
PRSMN GAP BBNP N/A 87 60 39 E9 30.08R  
GUADLPE MTN NP N/A 69 56 63 N6 30.31R  

 
 
 
CLICK HERE TO GO TO PREVIOUS BULLETINS.

The Nexlab TX Page Main Text Page